Orbital Elements
Epoch 2021 Aug. 14.0 TT = JDT 2459440.5
T 2021 July 25.79818 TT Rudenko
q 1.9174637 (2000.0) P Q
n 0.09043424 Peri. 111.42631 +0.49511173 -0.81785206
a 4.9156482 Node 305.48307 +0.60207351 +0.56629118
e 0.6099266 Incl. 21.10654 +0.62639593 +0.10213865
P 10.9
From 387 observations 1999 Oct. 30-2020 Sept. 12, mean residual 0".8.
|